Weather History for Marrakech, Morocco

Change the Weather History Date:

Wednesday, February 20, 2013

  Actual Average Record
Temperature  
Mean Temperature 54 °F -  
Max Temperature 66 °F 71 °F 78 °F (1997)
Min Temperature 42 °F 48 °F 41 °F (1999)
Degree Days  
Heating Degree Days 11    
Growing Degree Days 4 (Base 50)    
Moisture  
Dew Point 44 °F    
Average Humidity 73    
Maximum Humidity 100    
Minimum Humidity 33    
Precipitation  
Precipitation 0.00 in 0.05 in - ()
Sea Level Pressure  
Sea Level Pressure 30.04 in    
Wind  
Wind Speed 2 mph ()    
Max Wind Speed 7 mph    
Max Gust Speed -    
Visibility 5.9 miles    
Events Rain    
Averages and records for this station are not official NWS values.
T = Trace of Precipitation, MM = Missing Value Source: Averaged Metar Reports

Daily Weather History Graph

Daily Weather History Graph

Search for Another Location

Airport:

Trip Planner

Search our weather history database for the weather conditions in past years. The results will help you decide how hot, cold, wet, or windy it might be!

Date:

Astronomy

Feb. 20, 2013 Rise Set
Actual Time 7:08 AM WET 6:23 PM WET
Civil Twilight 6:44 AM WET 6:47 PM WET
Nautical Twilight 6:15 AM WET 7:16 PM WET
Astronomical Twilight 5:47 AM WET 7:44 PM WET
Moon 1:43 PM WET (2/20) 3:07 AM WET (2/20)
Length of Visible Light 12h 03m
Length of Day
11h 14m
Waxing Gibbous, 74% of the Moon is Illuminated
Feb 20
Waxing Gibbous
Feb 25
Full
Mar 4
Last Quarter
Mar 11
New
Mar 19
First Quarter

Hourly Weather History & Observations

Time (WET) Temp. Windchill Dew Point Humidity Pressure Visibility Wind Dir Wind Speed Gust Speed Precip Events Conditions
12:30 AM 48.2 °F - 44.6 °F 87% 30.01 in 6.2 mi SSW 4.6 mph - N/A   Scattered Clouds
1:00 AM 48.2 °F - 44.6 °F 87% 30.01 in 6.2 mi South 4.6 mph - N/A   Scattered Clouds
1:30 AM 46.4 °F 44.3 °F 44.6 °F 93% 29.98 in 6.2 mi South 4.6 mph - N/A   Scattered Clouds
2:00 AM 46.4 °F - 44.6 °F 93% 29.98 in 6.2 mi Calm Calm - N/A   Scattered Clouds
2:01 AM 46.4 °F - 44.6 °F 93% 29.98 in 6.2 mi Calm Calm - N/A   Scattered Clouds
2:30 AM 46.4 °F - 44.6 °F 93% 29.98 in 6.2 mi Variable 1.2 mph - N/A   Scattered Clouds
3:00 AM 46 °F - 44 °F 92% 30.01 in 6 mi Calm Calm - -   Partly Cloudy
3:00 AM 46.4 °F - 44.6 °F 93% 29.98 in 6.2 mi Calm Calm - N/A   Scattered Clouds
3:30 AM 44.6 °F 43.1 °F 44.6 °F 100% 29.98 in 6.2 mi South 3.5 mph - N/A   Scattered Clouds
4:00 AM 44.6 °F - 42.8 °F 93% 29.98 in 6.2 mi Calm Calm - N/A   Scattered Clouds
4:30 AM 44.6 °F 43.1 °F 42.8 °F 93% 29.98 in 6.2 mi South 3.5 mph - N/A   Partly Cloudy
5:00 AM 44.6 °F - 41.0 °F 87% 29.98 in 6.2 mi Variable 2.3 mph - N/A   Partly Cloudy
5:30 AM 42.8 °F - 41.0 °F 93% 30.01 in 6.2 mi Calm Calm - N/A   Partly Cloudy
6:00 AM 43 °F - 42 °F 92% 30.04 in 6 mi Calm Calm - -   Scattered Clouds
6:00 AM 42.8 °F - 41.0 °F 93% 30.01 in 6.2 mi Calm Calm - N/A   Partly Cloudy
6:30 AM 44.6 °F - 42.8 °F 93% 30.01 in 6.2 mi Calm Calm - N/A   Scattered Clouds
7:00 AM 44.6 °F - 42.8 °F 93% 30.01 in 6.2 mi Calm Calm - N/A   Mostly Cloudy
7:30 AM 46.4 °F - 42.8 °F 87% 30.01 in 6.2 mi Calm Calm - N/A   Mostly Cloudy
8:00 AM 46.4 °F - 42.8 °F 87% 30.04 in 6.2 mi Calm Calm - N/A   Mostly Cloudy
8:30 AM 48.2 °F - 44.6 °F 87% 30.04 in 6.2 mi Calm Calm - N/A Rain Rain
9:00 AM 51 °F - 45 °F 73% 30.06 in 6 mi South 3.5 mph - -   Partly Cloudy
9:00 AM 51.8 °F - 46.4 °F 82% 30.04 in 6.2 mi South 4.6 mph - N/A   Mostly Cloudy
9:30 AM 51.8 °F - 46.4 °F 82% 30.06 in 6.2 mi WSW 3.5 mph - N/A   Mostly Cloudy
10:00 AM 53.6 °F - 46.4 °F 77% 30.06 in 6.2 mi SW 3.5 mph - N/A   Scattered Clouds
10:30 AM 57.2 °F - 48.2 °F 72% 30.06 in 6.2 mi Variable 1.2 mph - N/A   Scattered Clouds
11:00 AM 59.0 °F - 48.2 °F 67% 30.06 in 6.2 mi Calm Calm - N/A   Scattered Clouds
11:30 AM 62.6 °F - 48.2 °F 59% 30.09 in 6.2 mi Calm Calm - N/A   Scattered Clouds
12:00 PM 59 °F - 46 °F 52% 30.07 in 6 mi East 2.3 mph - -   Partly Cloudy
12:00 PM 59.0 °F - 46.4 °F 63% 30.06 in 6.2 mi Variable 2.3 mph - N/A   Scattered Clouds
12:30 PM 62.6 °F - 44.6 °F 52% 30.06 in 6.2 mi Calm Calm - N/A   Scattered Clouds
1:00 PM 60.8 °F - 44.6 °F 55% 30.06 in 6.2 mi Variable 2.3 mph - N/A   Scattered Clouds
1:30 PM 57.2 °F - 42.8 °F 59% 30.06 in 6.2 mi NW 5.8 mph - N/A   Scattered Clouds
2:00 PM 57.2 °F - 44.6 °F 63% 30.06 in 6.2 mi NNW 6.9 mph - N/A   Mostly Cloudy
2:30 PM 59.0 °F - 44.6 °F 59% 30.06 in 6.2 mi NNW 4.6 mph - N/A   Mostly Cloudy
3:00 PM 63 °F - 46 °F 43% 30.03 in 6 mi NW 4.6 mph - -   Mostly Cloudy
3:00 PM 62.6 °F - 46.4 °F 55% 30.06 in 6.2 mi NW 4.6 mph - N/A   Mostly Cloudy
3:30 PM 62.6 °F - 46.4 °F 55% 30.04 in 6.2 mi NW 6.9 mph - N/A   Mostly Cloudy
4:00 PM 62.6 °F - 44.6 °F 52% 30.04 in 6.2 mi West 6.9 mph - N/A   Mostly Cloudy
4:30 PM 64.4 °F - 44.6 °F 49% 30.04 in 6.2 mi West 4.6 mph - N/A   Scattered Clouds
5:00 PM 64.4 °F - 41.0 °F 42% 30.04 in 6.2 mi North 3.5 mph - N/A   Scattered Clouds
5:30 PM 64.4 °F - 42.8 °F 45% 30.04 in 6.2 mi Calm Calm - N/A   Scattered Clouds
6:00 PM 65 °F - 43 °F 33% 30.02 in 6 mi Calm Calm - -   Partly Cloudy
6:00 PM 66.2 °F - 42.8 °F 43% 30.04 in 6.2 mi Calm Calm - N/A   Scattered Clouds
6:30 PM 60.8 °F - 42.8 °F 52% 30.06 in 6.2 mi Calm Calm - N/A   Partly Cloudy
7:00 PM 57.2 °F - 42.8 °F 59% 30.06 in 6.2 mi North 2.3 mph - N/A   Partly Cloudy
7:30 PM 57.2 °F - 41.0 °F 55% 30.06 in 6.2 mi Calm Calm - N/A   Partly Cloudy
8:00 PM 53.6 °F - 44.6 °F 72% 30.06 in 5.0 mi Calm Calm - N/A   Partly Cloudy
8:30 PM 53.6 °F - 44.6 °F 72% 30.09 in 4.3 mi Calm Calm - N/A   Partly Cloudy
9:00 PM 51 °F - 44 °F 69% 30.12 in 4 mi Calm Calm - -   Scattered Clouds
9:00 PM 50.0 °F - 44.6 °F 82% 30.09 in 4.3 mi Calm Calm - N/A   Partly Cloudy
9:30 PM 51.8 °F - 44.6 °F 76% 30.09 in 3.7 mi Variable 2.3 mph - N/A   Partly Cloudy
10:00 PM 51.8 °F - 44.6 °F 76% 30.12 in 3.7 mi South 3.5 mph - N/A   Partly Cloudy
10:30 PM 50.0 °F - 44.6 °F 82% 30.12 in 3.1 mi Variable 1.2 mph - N/A   Partly Cloudy
11:00 PM 50.0 °F - 46.4 °F 87% 30.12 in 6.2 mi SSE 2.3 mph - N/A   Partly Cloudy
11:30 PM 50.0 °F - 44.6 °F 82% 30.12 in 6.2 mi South 4.6 mph - N/A   Partly Cloudy